Date,TemperatureHighF,TemperatureAvgF,TemperatureLowF,DewpointHighF,DewpointAvgF,DewpointLowF,HumidityHigh,HumidityAvg,HumidityLow,PressureMaxIn,PressureMinIn,WindSpeedMaxMPH,WindSpeedAvgMPH,GustSpeedMaxMPH,PrecipitationSumIn
2013-12-1,34,32,27,34,31,24,100,96,86,30.47,30.07,0,0,0,0.10
2013-12-2,39,36,34,39,36,34,100,100,100,30.07,29.96,0,0,0,0.00
2013-12-3,46,36,28,44,35,28,100,97,82,30.00,29.89,0,0,3,0.01
2013-12-4,40,31,24,36,30,24,100,94,77,30.24,30.00,0,0,4,0.00
2013-12-5,39,35,28,39,35,28,100,100,100,30.27,29.96,0,0,5,0.02
2013-12-6,48,43,34,48,42,34,100,98,84,30.23,29.91,0,0,5,0.23
2013-12-7,37,32,23,36,31,23,100,96,81,30.52,30.15,0,0,8,0.15
2013-12-8,30,26,18,26,23,18,100,90,71,30.65,30.52,0,0,2,0.00
2013-12-9,34,30,25,34,29,23,100,98,83,30.55,29.93,0,0,0,0.00
2013-12-10,34,30,23,34,29,19,100,96,81,30.04,29.84,3,0,5,0.00
2013-12-11,31,24,17,24,20,16,98,87,75,30.24,30.04,6,0,13,0.00
2013-12-12,24,18,9,21,12,5,95,78,54,30.30,30.09,7,0,13,0.00
2013-12-13,28,19,9,22,14,4,88,83,74,30.44,30.05,7,0,9,0.00
2013-12-14,16,12,9,14,5,0,96,74,55,30.66,30.23,0,0,0,0.00
2013-12-15,29,21,15,28,21,14,100,98,95,30.23,29.51,2,0,3,0.00
2013-12-16,26,20,11,20,14,6,100,77,60,30.25,29.77,7,0,10,0.00
2013-12-17,16,8,-4,15,5,-10,98,86,76,30.35,30.03,0,0,0,0.00
2013-12-18,32,23,16,26,21,15,100,91,75,30.11,29.95,8,0,10,0.00
2013-12-19,38,30,19,30,26,17,99,87,72,30.15,30.00,7,0,8,0.00
2013-12-20,48,34,27,41,32,26,100,95,74,30.17,29.94,1,0,1,0.40
2013-12-21,50,37,30,49,37,30,100,100,98,30.00,29.89,0,0,0,0.37
2013-12-22,40,35,33,40,35,33,100,100,100,30.08,29.85,0,0,0,0.04
2013-12-23,35,33,32,35,33,32,100,100,100,30.14,30.01,0,0,1,0.42
2013-12-24,35,30,24,35,28,19,100,92,77,30.26,30.10,3,0,7,0.00
2013-12-25,25,18,13,19,10,6,84,71,58,30.58,30.25,4,0,8,0.00
2013-12-26,28,21,16,27,19,12,98,91,84,30.54,30.13,0,0,0,0.00
2013-12-27,32,21,10,26,19,8,100,89,77,30.33,30.25,2,0,7,0.03
2013-12-28,34,21,16,31,20,14,100,95,88,30.27,30.13,3,0,8,0.00
2013-12-29,36,33,25,36,33,25,100,100,97,30.08,29.52,0,0,4,0.98
2013-12-30,38,31,18,38,27,12,100,85,65,30.22,29.59,7,0,11,0.06
2013-12-31,24,17,11,16,12,6,90,78,63,30.23,30.06,1,0,6,0.00